• Join FlightAware (Why Join?)
  • Login
  • US Flag 
01:48AM EDT


 

Airport Tracker/Info


-or-


 

Live Flight TrackerFlight Track Log ✈ ASQ4976 ✈ 10-May-2013 ✈ KALB - KATL

Flight Track Log - Related Links

Times and Time Zones

All times are in EDT time to prevent confusion due to time zone crossing. See the ASQ4976 flight status page for this flight to view local times or setup timezone preferences in your user account.

Time Position Orientation Groundspeed Altitude Reporting Facility
EDT Latitude Longitude Course Direction KTS MPH feet Rate Location/Type
01:06PM 42.7214 -73.8050 177° South 167 192 1,200  Level Boston Center
01:07PM 42.6653 -73.8011 177° South 213 245 3,000 1,680 Climbing Boston Center
01:08PM 42.6442 -73.8231 217° Southwest 253 291 3,800 2,220 Climbing Boston Center
01:09PM 42.6367 -73.9189 264° West 282 325 6,400 2,520 Climbing Boston Center
01:10PM 42.6186 -74.0172 256° West 276 318 8,900 2,100 Climbing Boston Center
01:11PM 42.5964 -74.1156 253° West 271 312 10,600 1,800 Climbing Boston Center
01:12PM 42.5761 -74.2219 256° West 309 356 12,500 2,160 Climbing Boston Center
01:13PM 42.5103 -74.3047 223° Southwest 317 365 15,000 2,100 Climbing Boston Center
01:14PM 42.4317 -74.2572 156° South 400 460 16,800 1,920 Climbing Boston Center
01:15PM 42.3456 -74.1622 141° Southeast 378 435 18,900 1,740 Climbing Boston Center
01:16PM 42.2678 -74.0731 140° Southeast 371 427 20,300 1,440 Climbing Boston Center
01:17PM 42.1639 -74.0394 167° South 365 420 21,800 1,500 Climbing Boston Center
01:18PM 42.0597 -74.0481 184° South 360 414 23,300 1,500 Climbing Boston Center
01:19PM 41.9511 -74.0536 182° South 371 427 24,800 1,080 Climbing Boston Center
01:21PM 41.6778 -74.0678 182° South 411 473 27,200 840 Climbing New York Center
01:22PM 41.5633 -74.0703 181° South 418 481 27,700 360 Climbing New York Center
01:23PM 41.4381 -74.0781 183° South 434 499 28,000 120 Climbing New York Center
01:24PM 41.3086 -74.0883 183° South 450 518 28,000  Level New York Center
01:25PM 41.1772 -74.0983 183° South 465 535 28,000  Level New York Center
01:26PM 41.0786 -74.1925 216° Southwest 441 507 28,000  Level New York Center
01:27PM 41.0042 -74.3181 232° Southwest 429 494 28,000  Level New York Center
01:28PM 40.9297 -74.4403 231° Southwest 429 494 28,000  Level New York Center
01:29PM 40.8550 -74.5572 230° Southwest 429 494 28,000  Level New York Center
01:30PM 40.7825 -74.6764 231° Southwest 424 488 28,000  Level New York Center
01:31PM 40.7100 -74.7900 230° Southwest 419 482 28,000  Level New York Center
01:32PM 40.6347 -74.9114 231° Southwest 419 482 28,000  Level New York Center
01:33PM 40.5597 -75.0297 230° Southwest 424 488 28,000  Level New York Center
01:34PM 40.4847 -75.1478 230° Southwest 424 488 28,000  Level New York Center
01:35PM 40.4094 -75.2658 230° Southwest 424 488 28,000  Level New York Center
01:36PM 40.3336 -75.3889 231° Southwest 431 496 28,000  Level New York Center
01:37PM 40.2581 -75.5061 230° Southwest 431 496 28,000  Level New York Center
01:38PM 40.1883 -75.6319 234° Southwest 431 496 28,000  Level New York Center
01:39PM 40.1225 -75.7631 237° Southwest 431 496 28,000  Level New York Center
01:40PM 40.0586 -75.8939 237° Southwest 436 502 28,000  Level New York Center
01:41PM 39.9944 -76.0222 237° Southwest 436 502 28,000  Level New York Center
01:42PM 39.9181 -76.1464 231° Southwest 436 502 28,000  Level New York Center
01:43PM 39.8422 -76.2542 228° Southwest 442 509 28,000  Level New York Center
01:44PM 39.7658 -76.3722 230° Southwest 447 514 28,000  Level New York Center
01:45PM 39.6892 -76.4903 230° Southwest 447 514 28,000  Level New York Center
01:45PM 39.6578 -76.5322 226° Southwest 450 518 28,000  Level Washington Center
01:46PM 39.5819 -76.6525 231° Southwest 450 518 28,000  Level Washington Center
01:47PM 39.5017 -76.7694 228° Southwest 450 518 28,000  Level Washington Center
01:48PM 39.4253 -76.8864 230° Southwest 445 512 28,000  Level Washington Center
01:49PM 39.3469 -77.0033 229° Southwest 440 506 28,000  Level Washington Center
01:50PM 39.2706 -77.1197 230° Southwest 440 506 28,000  Level Washington Center
01:51PM 39.1919 -77.2358 229° Southwest 435 501 28,000  Level Washington Center
01:52PM 39.1153 -77.3519 230° Southwest 435 501 28,000  Level Washington Center
01:53PM 39.0514 -77.4467 229° Southwest 429 494 28,000  Level Washington Center
01:54PM 38.9681 -77.5753 230° Southwest 429 494 28,000  Level Washington Center
01:55PM 38.8803 -77.7008 228° Southwest 429 494 28,000  Level Washington Center
01:56PM 38.8053 -77.8106 229° Southwest 434 499 28,000  Level Washington Center
01:57PM 38.7303 -77.9203 229° Southwest 434 499 28,000  Level Washington Center
01:58PM 38.6531 -78.0347 229° Southwest 428 493 28,000  Level Washington Center
01:59PM 38.5714 -78.1517 228° Southwest 428 493 28,000  Level Washington Center
02:00PM 38.4939 -78.2656 229° Southwest 428 493 28,000  Level Washington Center
02:01PM 38.4142 -78.3794 228° Southwest 428 493 28,000  Level Washington Center
02:02PM 38.3342 -78.4956 229° Southwest 428 493 28,000  Level Washington Center
02:03PM 38.2497 -78.6192 229° Southwest 428 493 28,000  Level Washington Center
02:04PM 38.1697 -78.7322 228° Southwest 428 493 28,000  Level Washington Center
02:05PM 38.0981 -78.8372 229° Southwest 433 498 28,000  Level Washington Center
02:06PM 38.0156 -78.9522 228° Southwest 433 498 28,000  Level Washington Center
02:07PM 37.9353 -79.0672 229° Southwest 439 505 28,000  Level Washington Center
02:08PM 37.8547 -79.1792 228° Southwest 439 505 28,000  Level Washington Center
02:09PM 37.7633 -79.3036 227° Southwest 439 505 28,000  Level Washington Center
02:10PM 37.6806 -79.4150 227° Southwest 439 505 28,000  Level Washington Center
02:11PM 37.5978 -79.5289 227° Southwest 444 511 28,000  Level Washington Center
02:12PM 37.5147 -79.6397 227° Southwest 444 511 28,000  Level Washington Center
02:13PM 37.4333 -79.7583 229° Southwest 449 517 28,000  Level Washington Center
02:14PM 37.3522 -79.8689 227° Southwest 454 522 28,000  Level Washington Center
02:16PM 37.2692 -79.9764 226° Southwest 448 516 28,000  Level Washington Center
02:18PM 37.0975 -80.2058 227° Southwest 426 490 28,000  Level Atlanta Center
02:19PM 37.0172 -80.3136 227° Southwest 426 490 28,000  Level Atlanta Center
02:20PM 36.9292 -80.4347 228° Southwest 432 497 28,000  Level Atlanta Center
02:21PM 36.8469 -80.5447 227° Southwest 432 497 28,000  Level Atlanta Center
02:22PM 36.7644 -80.6519 226° Southwest 432 497 28,000  Level Atlanta Center
02:23PM 36.6858 -80.7564 227° Southwest 432 497 28,000  Level Atlanta Center
02:24PM 36.6072 -80.8606 227° Southwest 432 497 28,000  Level Atlanta Center
02:25PM 36.5408 -80.9483 227° Southwest 416 479 28,000  Level Atlanta Center
02:26PM 36.4681 -81.0492 228° Southwest 395 455 28,000  Level Atlanta Center
02:27PM 36.3914 -81.1475 226° Southwest 390 449 28,000  Level Atlanta Center
02:28PM 36.3125 -81.2533 227° Southwest 411 473 28,000  Level Atlanta Center
02:29PM 36.2314 -81.3592 226° Southwest 417 480 28,000  Level Atlanta Center
02:30PM 36.1481 -81.4675 226° Southwest 417 480 28,000  Level Atlanta Center
02:31PM 36.0669 -81.5753 227° Southwest 428 493 28,000  Level Atlanta Center
02:32PM 35.9814 -81.6831 226° Southwest 433 498 28,000  Level Atlanta Center
02:33PM 35.8981 -81.7931 227° Southwest 438 504 28,000  Level Atlanta Center
02:34PM 35.8144 -81.8978 225° Southwest 433 498 28,000  Level Atlanta Center
02:35PM 35.7347 -82.0050 228° Southwest 433 498 28,000  Level Atlanta Center
02:36PM 35.6469 -82.1144 225° Southwest 422 486 28,000  Level Atlanta Center
02:37PM 35.5650 -82.2186 226° Southwest 422 486 28,000 -180 Level Atlanta Center
02:38PM 35.4850 -82.3197 226° Southwest 422 486 27,700 -600 Descending Atlanta Center
02:39PM 35.4031 -82.4208 225° Southwest 422 486 26,800 -900 Descending Atlanta Center
02:40PM 35.3228 -82.5192 225° Southwest 415 478 26,000 -780 Descending Atlanta Center
02:41PM 35.2531 -82.6044 225° Southwest 409 471 25,300 -960 Descending Atlanta Center
02:42PM 35.1747 -82.7047 226° Southwest 402 463 24,100 -1,620 Descending Atlanta Center
02:43PM 35.0967 -82.8025 226° Southwest 402 463 22,100 -1,080 Descending Atlanta Center
02:44PM 35.0222 -82.8950 226° Southwest 402 463 22,000 -60 Descending Atlanta Center
02:45PM 34.9461 -82.9922 226° Southwest 385 443 22,000  Level Atlanta Center
02:46PM 34.8653 -83.0742 220° Southwest 374 430 22,000  Level Atlanta Center
02:47PM 34.7803 -83.1511 217° Southwest 374 430 22,000  Level Atlanta Center
02:48PM 34.7036 -83.2303 220° Southwest 374 430 22,000  Level Atlanta Center
02:49PM 34.6228 -83.3144 221° Southwest 380 437 22,000  Level Atlanta Center
02:50PM 34.5439 -83.3958 220° Southwest 375 432 22,000 -60 Level Atlanta Center
02:51PM 34.4608 -83.4744 218° Southwest 375 432 21,900 -1,080 Descending Atlanta Center
02:52PM 34.3922 -83.5453 220° Southwest 375 432 19,900 -2,100 Descending Atlanta Center
02:53PM 34.3175 -83.6189 219° Southwest 367 422 17,800 -1,980 Descending Atlanta Center
02:54PM 34.2528 -83.6819 219° Southwest 333 383 16,000 -1,680 Descending Atlanta Center
02:55PM 34.1925 -83.7425 220° Southwest 297 342 14,500 -1,500 Descending Atlanta Center
02:56PM 34.1364 -83.7978 219° Southwest 273 314 13,000 -1,260 Descending Atlanta Center
02:57PM 34.0758 -83.8558 218° Southwest 273 314 12,000 -1,020 Descending Atlanta Center
02:57PM 34.0500 -83.8833 221° Southwest 262 302 11,600 -1,140 Descending Atlanta TRACON
02:58PM 34.0000 -83.9333 220° Southwest 253 291 10,500 -1,260 Descending Atlanta TRACON
02:59PM 33.9333 -83.9500 192° South 268 308 9,100 -780 Descending Atlanta TRACON
03:00PM 33.8500 -83.9500 180° South 263 303 9,000 -120 Descending Atlanta TRACON
03:01PM 33.8108 -83.9539 185° South 260 299 9,000 -780 Level Atlanta Center
03:02PM 33.7400 -83.9514 178° South 260 299 7,800 -1,320 Descending Atlanta Center
03:03PM 33.6711 -83.9689 192° South 260 299 6,400 -600 Descending Atlanta Center
03:05PM 33.6333 -84.0833 248° West 187 215 6,000 -360 Descending Atlanta TRACON
03:06PM 33.6333 -84.1500 270° West 190 219 5,300 -960 Descending Atlanta TRACON
03:07PM 33.6333 -84.2167 270° West 182 209 4,100 -1,080 Descending Atlanta TRACON
03:08PM 33.6333 -84.2833 270° West 185 213 3,200 -900 Descending Atlanta TRACON
03:09PM 33.6333 -84.3333 270° West 178 205 2,300 -900 Descending Atlanta TRACON
03:10PM 33.6333 -84.3833 270° West 146 168 1,500 -840 Descending Atlanta TRACON
03:12PM 33.6367 -84.4279 270° West  Level Estimated
03:19PM 33.6367 -84.4279 64° Northeast  Level Estimated